• In Uzbekistan
  • List of Countries
  • For 7 days
  • Water Temperature
  • Satellite Maps
  • Weather Map
  • Weather Widgets
  • user-avatar
    Login

    Hourly Weather San Luis

    Today, 21 August, Monday

    Time Temperature Precipitation Wind Pressure Humidity
    00:00 +12°C° 0 mm 7 mps 703 mmHg 36%
    01:00 +11°C° 0 mm 8 mps 703 mmHg 35%
    02:00 +11°C° 0 mm 9 mps 702 mmHg 36%
    03:00 +11°C° 0 mm 9 mps 702 mmHg 35%
    04:00 +11°C° 0 mm 10 mps 702 mmHg 34%
    05:00 +11°C° 0 mm 11 mps 702 mmHg 33%
    06:00 +11°C° 0 mm 11 mps 702 mmHg 32%
    07:00 +12°C° 0 mm 12 mps 702 mmHg 32%
    08:00 +12°C° 0 mm 13 mps 702 mmHg 32%
    09:00 +13°C° 0 mm 13 mps 702 mmHg 29%
    10:00 +15°C° 0 mm 14 mps 702 mmHg 27%
    11:00 +18°C° 0 mm 14 mps 701 mmHg 24%
    12:00 +19°C° 0 mm 13 mps 701 mmHg 23%
    13:00 +20°C° 0 mm 13 mps 700 mmHg 22%
    14:00 +22°C° 0 mm 13 mps 699 mmHg 21%
    15:00 +21°C° 0 mm 12 mps 699 mmHg 21%
    16:00 +21°C° 0 mm 12 mps 698 mmHg 21%
    17:00 +19°C° 0 mm 11 mps 697 mmHg 22%
    18:00 +18°C° 0 mm 11 mps 697 mmHg 22%
    19:00 +17°C° 0 mm 11 mps 697 mmHg 23%
    20:00 +16°C° 0 mm 11 mps 697 mmHg 24%
    21:00 +15°C° 0 mm 12 mps 696 mmHg 22%
    22:00 +14°C° 0 mm 13 mps 696 mmHg 21%
    23:00 +14°C° 0 mm 14 mps 696 mmHg 20%

    Tomorrow, 22 August, Tuesday

    Time Temperature Precipitation Wind Pressure Humidity
    00:00 +14°C° 0 mm 14 mps 695 mmHg 20%
    01:00 +14°C° 0 mm 14 mps 694 mmHg 21%
    02:00 +14°C° 0 mm 14 mps 693 mmHg 21%
    03:00 +14°C° 0 mm 14 mps 693 mmHg 22%
    04:00 +13°C° 0 mm 14 mps 692 mmHg 23%
    05:00 +13°C° 0 mm 14 mps 691 mmHg 24%
    06:00 +13°C° 0 mm 14 mps 691 mmHg 24%
    07:00 +13°C° 0 mm 14 mps 691 mmHg 25%
    08:00 +13°C° 0 mm 14 mps 690 mmHg 25%
    09:00 +15°C° 0 mm 14 mps 691 mmHg 22%
    10:00 +18°C° 0 mm 14 mps 691 mmHg 20%
    11:00 +20°C° 0 mm 13 mps 691 mmHg 17%
    12:00 +23°C° 0 mm 13 mps 690 mmHg 16%
    13:00 +24°C° 0 mm 12 mps 690 mmHg 15%
    14:00 +26°C° 0 mm 12 mps 689 mmHg 14%
    15:00 +24°C° 0 mm 11 mps 689 mmHg 15%
    16:00 +24°C° 0 mm 10 mps 689 mmHg 15%
    17:00 +23°C° 0 mm 9 mps 689 mmHg 16%
    18:00 +22°C° 0 mm 9 mps 689 mmHg 17%
    19:00 +21°C° 0 mm 9 mps 689 mmHg 18%
    20:00 +19°C° 0 mm 10 mps 689 mmHg 19%
    21:00 +19°C° 0 mm 10 mps 690 mmHg 19%
    22:00 +19°C° 0 mm 10 mps 690 mmHg 19%
    23:00 +19°C° 0 mm 10 mps 690 mmHg 19%

    Day after tomorrow, 23 August, Wednesday

    Time Temperature Precipitation Wind Pressure Humidity
    00:00 +18°C° 0 mm 8 mps 691 mmHg 21%
    01:00 +17°C° 0 mm 7 mps 692 mmHg 23%
    02:00 +17°C° 0 mm 5 mps 692 mmHg 24%
    03:00 +14°C° 0 mm 6 mps 693 mmHg 28%
    04:00 +11°C° 0 mm 7 mps 694 mmHg 32%
    05:00 +9°C° 0 mm 8 mps 695 mmHg 36%
    06:00 +9°C° 0 mm 8 mps 696 mmHg 36%
    07:00 +7°C° 0 mm 8 mps 697 mmHg 35%
    08:00 +7°C° 0 mm 8 mps 698 mmHg 34%
    09:00 +10°C° 0 mm 8 mps 699 mmHg 30%
    10:00 +12°C° 0 mm 8 mps 699 mmHg 26%
    11:00 +15°C° 0 mm 7 mps 700 mmHg 22%
    12:00 +17°C° 0 mm 7 mps 699 mmHg 20%
    13:00 +18°C° 0 mm 7 mps 698 mmHg 18%
    14:00 +20°C° 0 mm 7 mps 697 mmHg 17%
    15:00 +20°C° 0 mm 6 mps 697 mmHg 16%
    16:00 +20°C° 0 mm 6 mps 697 mmHg 16%
    17:00 +20°C° 0 mm 5 mps 696 mmHg 16%
    18:00 +17°C° 0 mm 5 mps 696 mmHg 19%
    19:00 +15°C° 0 mm 4 mps 696 mmHg 23%
    20:00 +14°C° 0 mm 4 mps 695 mmHg 26%
    21:00 +13°C° 0 mm 4 mps 695 mmHg 26%
    22:00 +13°C° 0 mm 4 mps 695 mmHg 27%
    23:00 +13°C° 0 mm 3 mps 695 mmHg 28%

    24 August, Thursday

    Time Temperature Precipitation Wind Pressure Humidity
    00:00 +13°C° 0 mm 4 mps 694 mmHg 29%
    01:00 +13°C° 0 mm 4 mps 694 mmHg 31%
    02:00 +13°C° 0 mm 5 mps 693 mmHg 32%
    03:00 +13°C° 0 mm 5 mps 693 mmHg 33%
    04:00 +13°C° 0 mm 5 mps 692 mmHg 33%
    05:00 +13°C° 0 mm 5 mps 692 mmHg 34%
    06:00 +13°C° 0 mm 5 mps 692 mmHg 36%
    07:00 +14°C° 0 mm 5 mps 692 mmHg 38%
    08:00 +14°C° 0 mm 5 mps 693 mmHg 40%
    09:00 +17°C° 0 mm 6 mps 693 mmHg 36%
    10:00 +21°C° 0 mm 6 mps 693 mmHg 32%
    11:00 +23°C° 0 mm 7 mps 694 mmHg 27%
    12:00 +24°C° 0 mm 7 mps 693 mmHg 24%
    13:00 +26°C° 0 mm 7 mps 692 mmHg 20%
    14:00 +28°C° 0 mm 7 mps 692 mmHg 17%
    15:00 +28°C° 0 mm 6 mps 691 mmHg 16%
    16:00 +28°C° 0 mm 5 mps 691 mmHg 16%
    17:00 +28°C° 0 mm 4 mps 691 mmHg 15%
    18:00 +25°C° 0 mm 4 mps 691 mmHg 21%
    19:00 +22°C° 0 mm 4 mps 691 mmHg 27%
    20:00 +20°C° 0 mm 4 mps 691 mmHg 33%
    21:00 +19°C° 0 mm 4 mps 691 mmHg 37%
    22:00 +19°C° 0 mm 4 mps 692 mmHg 40%
    23:00 +18°C° 0 mm 4 mps 692 mmHg 44%

    25 August, Friday

    Time Temperature Precipitation Wind Pressure Humidity
    00:00 +17°C° 0.1 mm 4 mps 692 mmHg 49%
    01:00 +15°C° 0.1 mm 4 mps 692 mmHg 55%
    02:00 +14°C° 0.1 mm 3 mps 692 mmHg 61%
    03:00 +14°C° 0 mm 4 mps 692 mmHg 69%
    04:00 +13°C° 0 mm 4 mps 693 mmHg 78%
    05:00 +12°C° 0 mm 4 mps 693 mmHg 86%
    06:00 +11°C° 0.1 mm 6 mps 695 mmHg 85%
    07:00 +11°C° 0.1 mm 7 mps 696 mmHg 83%
    08:00 +11°C° 0.1 mm 8 mps 697 mmHg 81%
    09:00 +11°C° 0.1 mm 8 mps 698 mmHg 76%
    10:00 +11°C° 0.1 mm 9 mps 699 mmHg 70%
    11:00 +12°C° 0.1 mm 9 mps 700 mmHg 65%
    12:00 +12°C° 0 mm 8 mps 700 mmHg 62%
    13:00 +12°C° 0 mm 8 mps 700 mmHg 59%
    14:00 +14°C° 0 mm 7 mps 700 mmHg 56%
    15:00 +14°C° 0 mm 7 mps 700 mmHg 52%
    16:00 +14°C° 0 mm 7 mps 700 mmHg 48%
    17:00 +14°C° 0 mm 7 mps 700 mmHg 43%
    18:00 +11°C° 0 mm 6 mps 701 mmHg 47%
    19:00 +10°C° 0 mm 6 mps 701 mmHg 51%
    20:00 +9°C° 0 mm 5 mps 701 mmHg 56%
    21:00 +8°C° 0 mm 5 mps 701 mmHg 56%
    22:00 +8°C° 0 mm 5 mps 701 mmHg 56%
    23:00 +8°C° 0 mm 5 mps 701 mmHg 56%

    26 August, Saturday

    Time Temperature Precipitation Wind Pressure Humidity
    00:00 +8°C° 0 mm 5 mps 701 mmHg 54%
    01:00 +8°C° 0 mm 5 mps 701 mmHg 52%
    02:00 +8°C° 0 mm 5 mps 700 mmHg 50%
    03:00 +8°C° 0 mm 5 mps 700 mmHg 49%
    04:00 +7°C° 0 mm 5 mps 700 mmHg 48%
    05:00 +7°C° 0 mm 5 mps 700 mmHg 48%
    06:00 +8°C° 0 mm 4 mps 700 mmHg 45%
    07:00 +10°C° 0 mm 4 mps 700 mmHg 43%
    08:00 +10°C° 0 mm 4 mps 700 mmHg 41%
    09:00 +13°C° 0 mm 4 mps 700 mmHg 35%
    10:00 +15°C° 0 mm 5 mps 700 mmHg 29%
    11:00 +19°C° 0 mm 5 mps 700 mmHg 23%
    12:00 +20°C° 0 mm 6 mps 699 mmHg 23%
    13:00 +21°C° 0 mm 6 mps 699 mmHg 22%
    14:00 +22°C° 0 mm 7 mps 698 mmHg 22%
    15:00 +22°C° 0 mm 6 mps 697 mmHg 21%
    16:00 +22°C° 0 mm 6 mps 697 mmHg 20%
    17:00 +21°C° 0 mm 6 mps 696 mmHg 20%
    18:00 +20°C° 0 mm 5 mps 696 mmHg 24%
    19:00 +17°C° 0 mm 5 mps 695 mmHg 27%
    20:00 +15°C° 0 mm 4 mps 695 mmHg 31%
    21:00 +15°C° 0 mm 5 mps 695 mmHg 34%
    22:00 +14°C° 0 mm 6 mps 694 mmHg 37%
    23:00 +14°C° 0 mm 7 mps 694 mmHg 39%
    Show more